Terug naar catalogus

STARLINK-3397

ActiefCommunicatieVLEO
NORAD 51115·PAYLOAD·🇺🇸 United States

Gelanceerd Jan 19, 2022 vanaf Cape Canaveral Space Force Station

Loading…

Volgende Passages (komende 24 uur)

TLE

VersSource: CelesTrak SupGP

Epoch: Sep 14, 2026, 20:39 UTC

1 51115C 22005M   26257.86090278 -.00045457  00000+0 -13793-2 0  2572
2 51115  53.1587 152.0970 0001308  92.1105 343.3429 15.33573900    13

Volg STARLINK-3397 in realtime met AllMySat

Download on the App Store